Ames, IA

1:48 PM CDT on October 21, 2017 (GMT -0500)
Ames Municipal

Weather History for KAMW - January, 2013

Change the Weather History Date:

Saturday, January 19, 2013

  Actual Average Record
Temperature  
Mean Temperature 33 °F 20 °F  
Max Temperature 50 °F 29 °F 50 °F (2013)
Min Temperature 15 °F 10 °F -9 °F (2008)
Degree Days  
Heating Degree Days 32 45  
Month to date heating degree days 775 864  
Since 1 July heating degree days 3344 3618  
Cooling Degree Days 0 0  
Month to date cooling degree days 0 0  
Year to date cooling degree days 0 0  
Moisture  
Dew Point 26 °F    
Average Humidity 70    
Maximum Humidity 89    
Minimum Humidity 50    
Precipitation  
Precipitation 0.00 in 0.03 in 0.36 in (2000)
Month to date precipitation 0.02 0.31  
Sea Level Pressure  
Sea Level Pressure 29.97 in    
Wind  
Wind Speed 14 mph (WNW)    
Max Wind Speed 33 mph    
Max Gust Speed 44 mph    
Visibility 10 miles    
Events      
T = Trace of Precipitation, MM = Missing Value Source: NWS Daily Summary

Daily Weather History Graph

Daily Weather History Graph

Search for Another Location

Airport or City:

Trip Planner

Search our weather history database for the weather conditions in past years. The results will help you decide how hot, cold, wet, or windy it might be!

Date:

Astronomy

Jan. 19, 2013 Rise Set
Actual Time 7:37 AM CST 5:13 PM CST
Civil Twilight 7:07 AM CST 5:43 PM CST
Nautical Twilight 6:32 AM CST 6:18 PM CST
Astronomical Twilight 5:59 AM CST 6:51 PM CST
Moon 11:41 AM CST (1/19) 1:11 AM CST (1/19)
Length of Visible Light 10h 36m
Length of Day
9h 35m
First Quarter, 57% of the Moon is Illuminated
Jan 19
First Quarter
Jan 26
Full
Feb 3
Last Quarter
Feb 10
New
Feb 17
First Quarter

Hourly Weather History & Observations

Time (CST) Temp. Windchill Dew Point Humidity Pressure Visibility Wind Dir Wind Speed Gust Speed Precip Events Conditions
12:53 AM 33.1 °F - 28.9 °F 85% 29.86 in 10.0 mi Calm Calm - N/A   Clear
1:53 AM 35.1 °F - 28.9 °F 78% 29.86 in 10.0 mi Calm Calm - N/A   Clear
2:53 AM 32.0 °F - 28.0 °F 85% 29.86 in 10.0 mi Calm Calm - N/A   Clear
3:53 AM 32.0 °F 28.7 °F 28.0 °F 85% 29.84 in 10.0 mi SSW 3.5 mph - N/A   Clear
4:53 AM 33.1 °F 27.7 °F 28.9 °F 85% 29.82 in 10.0 mi SSW 5.8 mph - N/A   Clear
6:53 AM 35.1 °F 27.9 °F 30.9 °F 85% 29.86 in 10.0 mi WNW 9.2 mph - N/A   Mostly Cloudy
7:53 AM 34.0 °F 31.0 °F 30.0 °F 85% 29.83 in 10.0 mi SSW 3.5 mph - N/A   Clear
8:53 AM 35.1 °F 28.6 °F 30.9 °F 85% 29.86 in 10.0 mi West 8.1 mph - N/A   Clear
9:53 AM 37.9 °F 30.5 °F 30.9 °F 76% 29.87 in 10.0 mi West 11.5 mph - N/A   Clear
10:53 AM 43.0 °F 35.4 °F 30.9 °F 62% 29.87 in 10.0 mi West 16.1 mph - N/A   Clear
11:53 AM 46.9 °F - 32.0 °F 56% 29.86 in 10.0 mi West 15.0 mph - N/A   Clear
12:53 PM 48.0 °F - 33.1 °F 56% 29.86 in 10.0 mi WNW 17.3 mph 21.9 mph N/A   Clear
1:53 PM 48.9 °F - 33.1 °F 54% 29.88 in 10.0 mi WNW 16.1 mph 27.6 mph N/A   Clear
2:53 PM 50.0 °F - 33.1 °F 52% 29.90 in 10.0 mi WNW 20.7 mph 26.5 mph N/A   Clear
3:53 PM 48.0 °F - 30.9 °F 52% 29.95 in 10.0 mi NW 24.2 mph 38.0 mph N/A   Clear
4:53 PM 44.1 °F 35.0 °F 30.0 °F 58% 29.99 in 10.0 mi WNW 24.2 mph 28.8 mph N/A   Clear
5:53 PM 41.0 °F 32.5 °F 30.9 °F 67% 30.04 in 10.0 mi WNW 17.3 mph 25.3 mph N/A   Scattered Clouds
6:53 PM 37.9 °F 27.1 °F 28.9 °F 70% 30.09 in 10.0 mi NW 23.0 mph 34.5 mph N/A   Overcast
7:53 PM 34.0 °F 22.1 °F 18.0 °F 52% 30.12 in 10.0 mi NW 21.9 mph 34.5 mph N/A   Clear
8:53 PM 27.0 °F 13.5 °F 19.9 °F 75% 30.18 in 10.0 mi NNW 19.6 mph 26.5 mph N/A   Scattered Clouds
9:02 PM 26.6 °F 9.8 °F 17.6 °F 69% 30.17 in 10.0 mi NNW 32.2 mph 39.1 mph N/A   Mostly Cloudy
9:34 PM 23.0 °F 7.2 °F 15.8 °F 74% 30.19 in 10.0 mi NNW 23.0 mph 34.5 mph N/A   Scattered Clouds
9:53 PM 21.9 °F 6.2 °F 12.0 °F 66% 30.24 in 10.0 mi NNW 21.9 mph 40.3 mph N/A   Clear
11:53 PM 16.0 °F 0.1 °F 3.9 °F 59% 30.29 in 10.0 mi NW 17.3 mph 29.9 mph N/A   Clear